Flag for U.S.A. Weather past 2 weeks in Narragansett, Rhode Island, U.S.A.

Now
72 °F

Partly sunny.


Feels Like: 76 °F
Forecast: 61 / 73 °F
Wind: 13 mph from Northeast

Location: Newport State Airport

Current Time: Aug 23, 2014 at 11:24:29 AM

Latest Report: Aug 23, 2014 at 10:53 AM


Visibility: 10 mi

Pressure: 30.09 "Hg

Humidity: 61%

Dew point: 58 °F

Location of NarragansettLocation

Historic Weather in Narragansett — Graph

°F

Narragansett temperature yesterday

Maximum temperature yesterday: 74 °F (at 3:53 PM)
Minimum temperature yesterday: 65 °F (at 12:53 AM)
Average temperature yesterday: 68 °F

Past Weeks' High & Low Weather Summary

 TemperatureHumidityPressure
High83 °F (Aug 10, 12:53 PM)97% (Aug 12, 5:53 AM)30.16 "Hg (Aug 12, 5:53 AM)
Low55 °F (Aug 19, 4:53 AM)42% (Aug 8, 2:53 PM)29.62 "Hg (Aug 13, 7:53 PM)
Average69 °F73%29.97 "Hg
* Reported Aug 8 9:53 AM — Aug 23 9:53 AM, Narragansett, Weather by CustomWeather, © 2014

Note: Actual official high and low records may vary slightly from our data, if they occured in-between our weather recording intervals... More about our weather records

Advertising

Narragansett weather history for previous 24 hours

 ConditionsComfort  
Time TempWeatherWind HumidityBarometerVisibility
9:53 AM
Aug 23
70 °FPassing clouds.13 mph68%30.09 "Hg10 mi
8:53 AM67 °FSunny.15 mph73%30.08 "Hg10 mi
7:53 AM67 °FPassing clouds.10 mph76%30.09 "Hg10 mi
6:53 AM64 °FPassing clouds.10 mph84%30.08 "Hg10 mi
5:53 AM63 °FClear.12 mph87%30.07 "Hg10 mi
4:53 AM64 °FPassing clouds.8 mph87%30.06 "Hg10 mi
3:53 AM65 °FPassing clouds.8 mph87%30.05 "Hg10 mi
3:01 AM65 °FPassing clouds.7 mph87%30.06 "Hg10 mi
1:53 AM65 °FMostly cloudy.3 mph87%30.07 "Hg10 mi
12:53 AM65 °FPassing clouds.5 mph87%30.07 "Hg10 mi
11:53 PM
Aug 22
66 °FPassing clouds.6 mph84%30.07 "Hg10 mi
10:53 PM66 °FOvercast.6 mph84%30.07 "Hg10 mi
9:53 PM66 °FPassing clouds.5 mph81%30.07 "Hg10 mi
8:53 PM68 °FOvercast.6 mph78%30.08 "Hg10 mi
7:53 PM69 °FScattered clouds.9 mph70%30.06 "Hg10 mi
6:53 PM70 °FPartly sunny.3 mph68%30.06 "Hg10 mi
5:53 PM72 °FOvercast.5 mph64%30.05 "Hg10 mi
4:53 PM73 °FPassing clouds.7 mph64%30.04 "Hg10 mi
3:53 PM74 °FMostly cloudy.8 mph60%30.04 "Hg10 mi
2:53 PM73 °FPartly sunny.12 mph69%30.05 "Hg10 mi
1:53 PM70 °FMore clouds than sun.8 mph76%30.07 "Hg10 mi
12:53 PM71 °FMostly cloudy.7 mph71%30.06 "Hg10 mi
11:53 AM72 °FPartly sunny.5 mph71%30.06 "Hg10 mi
Weather by CustomWeather, © 2014

See weather overviewHow to use our weather pages